Time,TemperatureF,DewpointF,PressureIn,WindDirection,WindDirectionDegrees,WindSpeedMPH,WindSpeedGustMPH,Humidity,HourlyPrecipIn,Conditions,Clouds,dailyrainin,SoftwareType,DateUTC
2013-07-01 00:00:00,78.4,69.8,29.83,SSW,207,0.0,0.0,75,0.00,,---,0.00,VWS V14.01,2013-07-01 04:00:00,
2013-07-01 00:01:00,78.4,69.8,29.84,SSW,207,0.0,0.0,75,0.00,,---,0.00,VWS V14.01,2013-07-01 04:01:00,
2013-07-01 00:06:00,78.4,69.8,29.84,SSW,207,0.0,0.0,75,0.00,,---,0.00,VWS V14.01,2013-07-01 04:06:00,
2013-07-01 00:11:00,78.4,69.8,29.85,SSW,207,0.0,0.0,75,0.00,,---,0.00,VWS V14.01,2013-07-01 04:11:00,
2013-07-01 00:16:00,78.4,69.8,29.85,SSW,207,0.0,0.0,75,0.00,,---,0.00,VWS V14.01,2013-07-01 04:16:00,
2013-07-01 00:21:00,78.4,69.8,29.85,SSW,207,0.0,0.0,75,0.00,,---,0.00,VWS V14.01,2013-07-01 04:21:00,
2013-07-01 00:26:00,78.4,69.8,29.85,SSW,207,0.0,0.0,75,0.00,,---,0.00,VWS V14.01,2013-07-01 04:26:00,
2013-07-01 00:30:00,78.4,69.8,29.84,SSW,207,0.0,0.0,75,0.00,,---,0.00,VWS V14.01,2013-07-01 04:30:00,
2013-07-01 00:31:00,78.4,69.8,29.85,SSW,207,0.0,0.0,75,0.00,,---,0.00,VWS V14.01,2013-07-01 04:31:00,
2013-07-01 00:36:00,78.4,69.8,29.85,SSW,207,0.0,0.0,75,0.00,,---,0.00,VWS V14.01,2013-07-01 04:36:00,
2013-07-01 00:41:00,78.4,69.8,29.85,SSW,207,0.0,0.0,75,0.00,,---,0.00,VWS V14.01,2013-07-01 04:41:00,
2013-07-01 00:46:00,78.4,69.8,29.85,SSW,207,0.0,0.0,75,0.00,,---,0.00,VWS V14.01,2013-07-01 04:46:00,
2013-07-01 00:51:00,78.4,69.8,29.85,SSW,207,0.0,0.0,75,0.00,,---,0.00,VWS V14.01,2013-07-01 04:51:00,
2013-07-01 00:57:00,78.4,69.8,29.84,SSW,207,0.0,0.0,75,0.00,,---,0.00,VWS V14.01,2013-07-01 04:57:00,
2013-07-01 01:02:00,78.4,69.8,29.85,SSW,207,0.0,0.0,75,0.00,,---,0.00,VWS V14.01,2013-07-01 05:02:00,
2013-07-01 01:07:00,78.4,69.8,29.84,SSW,207,0.0,0.0,75,0.00,,---,0.00,VWS V14.01,2013-07-01 05:07:00,
2013-07-01 01:12:00,78.4,69.8,29.84,SSW,207,0.0,0.0,75,0.00,,---,0.00,VWS V14.01,2013-07-01 05:12:00,
2013-07-01 01:17:00,78.4,69.8,29.84,SSW,207,0.0,0.0,75,0.00,,---,0.00,VWS V14.01,2013-07-01 05:17:00,
2013-07-01 01:22:00,78.4,69.8,29.84,SSW,207,0.0,0.0,75,0.00,,---,0.00,VWS V14.01,2013-07-01 05:22:00,
2013-07-01 01:27:00,78.4,69.8,29.85,SSW,207,0.0,0.0,75,0.00,,---,0.00,VWS V14.01,2013-07-01 05:27:00,
2013-07-01 01:32:00,78.4,69.8,29.85,SSW,207,0.0,0.0,75,0.00,,---,0.00,VWS V14.01,2013-07-01 05:32:00,
2013-07-01 01:37:00,78.4,69.8,29.85,SSW,207,0.0,0.0,75,0.00,,---,0.00,VWS V14.01,2013-07-01 05:37:00,
2013-07-01 01:42:00,78.4,69.8,29.85,SSW,207,0.0,0.0,75,0.00,,---,0.00,VWS V14.01,2013-07-01 05:42:00,
2013-07-01 01:47:00,78.4,69.8,29.85,SSW,207,0.0,0.0,75,0.00,,---,0.00,VWS V14.01,2013-07-01 05:47:00,
2013-07-01 01:53:00,78.4,69.8,29.86,SSW,207,0.0,0.0,75,0.00,,---,0.00,VWS V14.01,2013-07-01 05:53:00,
2013-07-01 01:58:00,78.4,69.8,29.85,SSW,207,0.0,0.0,75,0.00,,---,0.00,VWS V14.01,2013-07-01 05:58:00,
2013-07-01 02:03:00,78.4,69.8,29.85,SSW,207,0.0,0.0,75,0.00,,---,0.00,VWS V14.01,2013-07-01 06:03:00,
2013-07-01 02:08:00,78.4,69.8,29.85,SSW,207,0.0,0.0,75,0.00,,---,0.00,VWS V14.01,2013-07-01 06:08:00,
2013-07-01 02:13:00,78.4,69.8,29.85,SSW,207,0.0,0.0,75,0.00,,---,0.00,VWS V14.01,2013-07-01 06:13:00,
2013-07-01 02:18:00,76.5,70.6,29.84,WSW,242,0.0,0.0,82,0.00,,---,0.00,VWS V14.01,2013-07-01 06:18:00,
2013-07-01 02:23:00,76.7,70.8,29.84,WSW,240,0.0,0.0,82,0.00,,---,0.00,VWS V14.01,2013-07-01 06:23:00,
2013-07-01 02:28:00,77.1,71.2,29.84,WSW,248,0.0,0.0,82,0.00,,---,0.00,VWS V14.01,2013-07-01 06:28:00,
2013-07-01 02:33:00,77.2,70.9,29.84,SW,218,0.0,0.0,81,0.00,,---,0.00,VWS V14.01,2013-07-01 06:33:00,
2013-07-01 02:38:00,77.6,71.7,29.84,SW,229,0.0,0.0,82,0.00,,---,0.00,VWS V14.01,2013-07-01 06:38:00,
2013-07-01 02:43:00,78.1,72.2,29.83,SSW,213,0.0,0.0,82,0.00,,---,0.00,VWS V14.01,2013-07-01 06:43:00,
2013-07-01 02:48:00,78.6,72.3,29.84,SW,236,0.0,0.0,81,0.00,,---,0.00,VWS V14.01,2013-07-01 06:48:00,
2013-07-01 02:53:00,78.8,72.1,29.83,SSW,213,0.0,0.0,80,0.00,,---,0.00,VWS V14.01,2013-07-01 06:53:00,
2013-07-01 02:58:00,78.9,71.8,29.83,SW,220,0.0,0.0,79,0.00,,---,0.00,VWS V14.01,2013-07-01 06:58:00,
2013-07-01 03:03:00,79.1,72.0,29.82,SW,216,0.0,0.0,79,0.00,,---,0.00,VWS V14.01,2013-07-01 07:03:00,
2013-07-01 03:08:00,79.2,72.1,29.82,SW,227,0.0,0.0,79,0.00,,---,0.00,VWS V14.01,2013-07-01 07:08:00,
2013-07-01 03:13:00,79.2,72.1,29.82,SSW,212,0.0,0.0,79,0.00,,---,0.00,VWS V14.01,2013-07-01 07:13:00,
2013-07-01 03:18:00,79.2,72.1,29.82,SW,215,0.0,0.0,79,0.00,,---,0.00,VWS V14.01,2013-07-01 07:18:00,
2013-07-01 03:23:00,79.3,71.8,29.82,SW,220,0.0,0.0,78,0.00,,---,0.00,VWS V14.01,2013-07-01 07:23:00,
2013-07-01 03:28:00,79.4,71.9,29.82,SSW,211,0.0,0.0,78,0.00,,---,0.00,VWS V14.01,2013-07-01 07:28:00,
2013-07-01 03:30:00,79.4,71.9,29.82,SW,219,0.0,0.0,78,0.00,,---,0.00,VWS V14.01,2013-07-01 07:30:00,
2013-07-01 03:33:00,79.4,71.9,29.82,SW,214,0.0,0.0,78,0.00,,---,0.00,VWS V14.01,2013-07-01 07:33:00,
2013-07-01 03:38:00,79.5,72.0,29.82,SW,228,0.0,0.0,78,0.00,,---,0.00,VWS V14.01,2013-07-01 07:38:00,
2013-07-01 03:43:00,79.6,72.1,29.82,SW,218,0.0,0.0,78,0.00,,---,0.00,VWS V14.01,2013-07-01 07:43:00,
2013-07-01 03:48:00,78.8,69.8,29.83,SW,217,0.0,0.0,74,0.00,,---,0.00,VWS V14.01,2013-07-01 07:48:00,
2013-07-01 03:53:00,76.9,68.8,29.83,SW,221,0.0,0.0,76,0.01,,---,0.01,VWS V14.01,2013-07-01 07:53:00,
2013-07-01 03:58:00,76.2,69.2,29.83,SSW,213,0.0,0.0,79,0.01,,---,0.01,VWS V14.01,2013-07-01 07:58:00,
2013-07-01 04:00:00,76.5,69.5,29.83,SW,223,0.0,0.0,79,0.01,,---,0.01,VWS V14.01,2013-07-01 08:00:00,
2013-07-01 04:03:00,76.7,69.3,29.83,SW,217,0.0,0.0,78,0.02,,---,0.02,VWS V14.01,2013-07-01 08:03:00,
2013-07-01 04:08:00,76.8,69.4,29.83,SW,226,0.0,0.0,78,0.02,,---,0.02,VWS V14.01,2013-07-01 08:08:00,
2013-07-01 04:13:00,76.6,69.6,29.83,SSW,203,0.0,0.0,79,0.03,,---,0.03,VWS V14.01,2013-07-01 08:13:00,
2013-07-01 04:18:00,76.2,69.6,29.83,SSW,210,0.0,0.0,80,0.03,,---,0.03,VWS V14.01,2013-07-01 08:18:00,
2013-07-01 04:23:00,76.1,69.1,29.83,SSW,213,0.0,0.0,79,0.03,,---,0.03,VWS V14.01,2013-07-01 08:23:00,
2013-07-01 04:28:00,76.4,69.8,29.84,SSW,209,0.0,0.0,80,0.03,,---,0.03,VWS V14.01,2013-07-01 08:28:00,
2013-07-01 04:30:00,76.5,69.9,29.84,SSW,202,0.0,0.0,80,0.03,,---,0.03,VWS V14.01,2013-07-01 08:30:00,
2013-07-01 04:33:00,76.5,69.9,29.84,SW,221,0.0,0.0,80,0.03,,---,0.03,VWS V14.01,2013-07-01 08:33:00,
2013-07-01 04:39:00,76.6,69.6,29.84,SSW,206,0.0,0.0,79,0.03,,---,0.03,VWS V14.01,2013-07-01 08:39:00,
2013-07-01 04:44:00,76.9,69.9,29.84,SW,214,0.0,0.0,79,0.03,,---,0.03,VWS V14.01,2013-07-01 08:44:00,
2013-07-01 04:49:00,77.1,70.1,29.84,SW,229,0.0,0.0,79,0.03,,---,0.03,VWS V14.01,2013-07-01 08:49:00,
2013-07-01 04:54:00,77.1,70.1,29.84,SSW,213,0.0,0.0,79,0.03,,---,0.03,VWS V14.01,2013-07-01 08:54:00,
2013-07-01 04:59:00,76.8,69.8,29.84,SW,217,0.0,0.0,79,0.05,,---,0.05,VWS V14.01,2013-07-01 08:59:00,
2013-07-01 05:00:00,76.4,69.4,29.84,WSW,240,0.0,0.0,79,0.05,,---,0.05,VWS V14.01,2013-07-01 09:00:00,
2013-07-01 05:04:00,76.0,69.4,29.85,SSW,211,0.0,0.0,80,0.05,,---,0.06,VWS V14.01,2013-07-01 09:04:00,
2013-07-01 05:09:00,75.8,69.6,29.85,SSW,208,0.0,0.0,81,0.06,,---,0.07,VWS V14.01,2013-07-01 09:09:00,
2013-07-01 05:14:00,76.1,69.8,29.85,SW,227,0.0,0.0,81,0.06,,---,0.07,VWS V14.01,2013-07-01 09:14:00,
2013-07-01 05:19:00,76.3,70.1,29.85,SW,215,0.0,0.0,81,0.06,,---,0.07,VWS V14.01,2013-07-01 09:19:00,
2013-07-01 05:24:00,76.5,69.9,29.85,SW,214,0.0,0.0,80,0.06,,---,0.07,VWS V14.01,2013-07-01 09:24:00,
2013-07-01 05:29:00,76.6,70.0,29.86,WSW,241,0.0,0.0,80,0.06,,---,0.07,VWS V14.01,2013-07-01 09:29:00,
2013-07-01 05:30:00,76.6,70.0,29.86,WSW,250,0.0,0.0,80,0.06,,---,0.07,VWS V14.01,2013-07-01 09:30:00,
2013-07-01 05:34:00,76.3,69.7,29.86,WSW,243,0.0,0.0,80,0.10,,---,0.13,VWS V14.01,2013-07-01 09:34:00,
2013-07-01 05:39:00,75.8,69.2,29.86,SW,232,0.0,0.0,80,0.10,,---,0.13,VWS V14.01,2013-07-01 09:39:00,
2013-07-01 05:44:00,75.6,69.4,29.86,WSW,242,0.0,0.0,81,0.10,,---,0.13,VWS V14.01,2013-07-01 09:44:00,
2013-07-01 05:49:00,75.4,69.5,29.86,WSW,246,0.0,0.0,82,0.10,,---,0.13,VWS V14.01,2013-07-01 09:49:00,
2013-07-01 05:54:00,75.2,69.3,29.86,WSW,254,0.0,0.0,82,0.10,,---,0.13,VWS V14.01,2013-07-01 09:54:00,
2013-07-01 05:59:00,75.1,69.2,29.86,SW,230,0.0,0.0,82,0.10,,---,0.13,VWS V14.01,2013-07-01 09:59:00,
2013-07-01 06:00:00,75.1,69.2,29.86,SW,231,0.0,0.0,82,0.10,,---,0.13,VWS V14.01,2013-07-01 10:00:00,
2013-07-01 06:04:00,75.1,69.2,29.86,WSW,242,0.0,0.0,82,0.08,,---,0.13,VWS V14.01,2013-07-01 10:04:00,
2013-07-01 06:09:00,75.0,69.1,29.86,SW,226,0.0,0.0,82,0.08,,---,0.13,VWS V14.01,2013-07-01 10:09:00,
2013-07-01 06:14:00,75.0,69.1,29.86,SW,226,0.0,0.0,82,0.08,,---,0.13,VWS V14.01,2013-07-01 10:14:00,
2013-07-01 06:19:00,75.0,69.1,29.87,SW,226,0.0,0.0,82,0.08,,---,0.13,VWS V14.01,2013-07-01 10:19:00,
2013-07-01 06:24:00,75.0,69.1,29.87,SW,226,0.0,0.0,82,0.08,,---,0.13,VWS V14.01,2013-07-01 10:24:00,
2013-07-01 06:30:00,75.0,69.1,29.88,SW,226,0.0,0.0,82,0.08,,---,0.13,VWS V14.01,2013-07-01 10:30:00,
2013-07-01 06:35:00,75.0,69.1,29.88,SW,226,0.0,0.0,82,0.06,,---,0.13,VWS V14.01,2013-07-01 10:35:00,
2013-07-01 06:40:00,75.0,69.1,29.88,SW,226,0.0,0.0,82,0.06,,---,0.13,VWS V14.01,2013-07-01 10:40:00,
2013-07-01 06:45:00,75.0,69.1,29.87,SW,226,0.0,0.0,82,0.06,,---,0.13,VWS V14.01,2013-07-01 10:45:00,
2013-07-01 06:50:00,75.0,69.1,29.87,SW,226,0.0,0.0,82,0.06,,---,0.13,VWS V14.01,2013-07-01 10:50:00,
2013-07-01 06:55:00,75.0,69.1,29.87,SW,226,0.0,0.0,82,0.06,,---,0.13,VWS V14.01,2013-07-01 10:55:00,
2013-07-01 07:00:00,75.0,69.1,29.87,SW,226,0.0,0.0,82,0.00,,---,0.13,VWS V14.01,2013-07-01 11:00:00,
2013-07-01 07:05:00,75.0,69.1,29.87,SW,226,0.0,0.0,82,0.00,,---,0.13,VWS V14.01,2013-07-01 11:05:00,
2013-07-01 07:10:00,75.0,69.1,29.87,SW,226,0.0,0.0,82,0.00,,---,0.13,VWS V14.01,2013-07-01 11:10:00,
2013-07-01 07:15:00,75.0,69.1,29.88,SW,226,0.0,0.0,82,0.00,,---,0.13,VWS V14.01,2013-07-01 11:15:00,
2013-07-01 07:20:00,75.0,69.1,29.87,SW,226,0.0,0.0,82,0.00,,---,0.13,VWS V14.01,2013-07-01 11:20:00,
2013-07-01 07:25:00,75.0,69.1,29.87,SW,226,0.0,0.0,82,0.00,,---,0.13,VWS V14.01,2013-07-01 11:25:00,
2013-07-01 07:30:00,75.0,69.1,29.88,SW,226,0.0,0.0,82,0.00,,---,0.13,VWS V14.01,2013-07-01 11:30:00,
2013-07-01 07:35:00,75.0,69.1,29.87,SW,226,0.0,0.0,82,0.00,,---,0.13,VWS V14.01,2013-07-01 11:35:00,
2013-07-01 07:40:00,77.9,72.0,29.88,SW,229,0.0,0.0,82,0.00,,---,0.13,VWS V14.01,2013-07-01 11:40:00,
2013-07-01 07:45:00,78.4,72.1,29.87,SSW,213,0.0,0.0,81,0.00,,---,0.13,VWS V14.01,2013-07-01 11:45:00,
2013-07-01 07:51:00,78.5,72.2,29.87,SW,223,0.0,0.0,81,0.00,,---,0.13,VWS V14.01,2013-07-01 11:51:00,
2013-07-01 07:56:00,78.8,72.1,29.87,SW,219,0.0,0.0,80,0.00,,---,0.13,VWS V14.01,2013-07-01 11:56:00,
2013-07-01 08:00:00,78.9,72.2,29.87,West,271,0.0,0.0,80,0.00,,---,0.13,VWS V14.01,2013-07-01 12:00:00,
2013-07-01 08:01:00,78.9,72.2,29.87,West,262,0.0,0.0,80,0.00,,---,0.13,VWS V14.01,2013-07-01 12:01:00,
2013-07-01 08:06:00,78.3,71.3,29.87,WSW,243,0.0,0.0,79,0.00,,---,0.13,VWS V14.01,2013-07-01 12:06:00,
2013-07-01 08:11:00,77.6,70.6,29.88,SW,223,0.0,0.0,79,0.00,,---,0.13,VWS V14.01,2013-07-01 12:11:00,
2013-07-01 08:16:00,77.5,70.8,29.88,WSW,238,0.0,0.0,80,0.00,,---,0.13,VWS V14.01,2013-07-01 12:16:00,
2013-07-01 08:21:00,77.8,71.1,29.89,SW,224,0.0,0.0,80,0.00,,---,0.13,VWS V14.01,2013-07-01 12:21:00,
2013-07-01 08:26:00,78.3,71.6,29.88,SW,236,0.0,0.0,80,0.00,,---,0.13,VWS V14.01,2013-07-01 12:26:00,
2013-07-01 08:30:00,78.6,71.9,29.88,SW,219,0.0,0.0,80,0.00,,---,0.13,VWS V14.01,2013-07-01 12:30:00,
2013-07-01 08:31:00,78.7,71.6,29.88,WSW,238,0.0,0.0,79,0.00,,---,0.13,VWS V14.01,2013-07-01 12:31:00,
2013-07-01 08:36:00,79.0,71.9,29.88,SSW,206,0.0,0.0,79,0.00,,---,0.13,VWS V14.01,2013-07-01 12:36:00,
2013-07-01 08:41:00,78.9,71.5,29.89,SSW,213,0.0,0.0,78,0.00,,---,0.13,VWS V14.01,2013-07-01 12:41:00,
2013-07-01 08:46:00,78.8,71.7,29.89,SSW,206,0.0,0.0,79,0.00,,---,0.13,VWS V14.01,2013-07-01 12:46:00,
2013-07-01 08:51:00,78.7,71.3,29.89,SW,229,0.0,0.0,78,0.00,,---,0.13,VWS V14.01,2013-07-01 12:51:00,
2013-07-01 08:56:00,78.7,71.6,29.88,SSW,211,0.0,0.0,79,0.00,,---,0.13,VWS V14.01,2013-07-01 12:56:00,
2013-07-01 09:00:00,78.8,71.4,29.88,SW,223,0.0,0.0,78,0.00,,---,0.13,VWS V14.01,2013-07-01 13:00:00,
2013-07-01 09:01:00,78.9,71.5,29.88,SW,216,0.0,0.0,78,0.00,,---,0.13,VWS V14.01,2013-07-01 13:01:00,
2013-07-01 09:06:00,79.0,71.2,29.89,SSW,209,0.0,0.0,77,0.00,,---,0.13,VWS V14.01,2013-07-01 13:06:00,
2013-07-01 09:11:00,79.1,71.3,29.88,SSW,212,0.0,0.0,77,0.00,,---,0.13,VWS V14.01,2013-07-01 13:11:00,
2013-07-01 09:16:00,79.4,71.6,29.89,SW,222,0.0,0.0,77,0.00,,---,0.13,VWS V14.01,2013-07-01 13:16:00,
2013-07-01 09:21:00,79.7,71.9,29.89,SSW,194,0.0,0.0,77,0.00,,---,0.13,VWS V14.01,2013-07-01 13:21:00,
2013-07-01 09:26:00,79.8,71.6,29.88,SSW,207,0.0,0.0,76,0.00,,---,0.13,VWS V14.01,2013-07-01 13:26:00,
2013-07-01 09:30:00,79.7,71.5,29.89,SW,217,0.0,0.0,76,0.00,,---,0.13,VWS V14.01,2013-07-01 13:30:00,
2013-07-01 09:31:00,79.8,71.6,29.88,SW,215,0.0,0.0,76,0.00,,---,0.13,VWS V14.01,2013-07-01 13:31:00,
2013-07-01 09:36:00,79.8,71.9,29.89,SW,223,0.0,0.0,77,0.00,,---,0.13,VWS V14.01,2013-07-01 13:36:00,
2013-07-01 09:41:00,79.8,71.9,29.88,SW,231,0.0,0.0,77,0.00,,---,0.13,VWS V14.01,2013-07-01 13:41:00,
2013-07-01 09:46:00,80.1,72.2,29.88,SW,220,0.0,0.0,77,0.00,,---,0.13,VWS V14.01,2013-07-01 13:46:00,
2013-07-01 09:51:00,80.3,72.1,29.88,SW,227,0.0,0.0,76,0.00,,---,0.13,VWS V14.01,2013-07-01 13:51:00,
2013-07-01 09:56:00,80.6,72.3,29.89,SSW,210,0.0,0.0,76,0.00,,---,0.13,VWS V14.01,2013-07-01 13:56:00,
2013-07-01 10:00:00,80.4,72.2,29.88,SSW,202,0.0,0.0,76,0.00,,---,0.13,VWS V14.01,2013-07-01 14:00:00,
2013-07-01 10:01:00,80.3,72.1,29.88,SW,215,0.0,0.0,76,0.00,,---,0.13,VWS V14.01,2013-07-01 14:01:00,
2013-07-01 10:06:00,80.2,72.3,29.89,SW,219,0.0,0.0,77,0.00,,---,0.13,VWS V14.01,2013-07-01 14:06:00,
2013-07-01 10:11:00,80.4,72.5,29.89,SW,223,0.0,0.0,77,0.00,,---,0.13,VWS V14.01,2013-07-01 14:11:00,
2013-07-01 10:16:00,80.6,72.3,29.89,SW,234,0.0,0.0,76,0.00,,---,0.13,VWS V14.01,2013-07-01 14:16:00,
2013-07-01 10:21:00,80.7,72.4,29.89,SSW,201,0.0,0.0,76,0.00,,---,0.13,VWS V14.01,2013-07-01 14:21:00,
2013-07-01 10:26:00,80.6,72.3,29.89,SSW,212,0.0,0.0,76,0.00,,---,0.13,VWS V14.01,2013-07-01 14:26:00,
2013-07-01 10:30:00,80.7,72.4,29.89,SSW,204,0.0,0.0,76,0.00,,---,0.13,VWS V14.01,2013-07-01 14:30:00,
2013-07-01 10:31:00,80.8,72.5,29.88,SSW,205,0.0,0.0,76,0.00,,---,0.13,VWS V14.01,2013-07-01 14:31:00,
2013-07-01 10:36:00,81.1,72.8,29.89,SW,225,0.0,0.0,76,0.00,,---,0.13,VWS V14.01,2013-07-01 14:36:00,
2013-07-01 10:41:00,81.0,72.3,29.89,SW,219,0.0,0.0,75,0.00,,---,0.13,VWS V14.01,2013-07-01 14:41:00,
2013-07-01 10:46:00,81.2,72.9,29.88,SSW,205,0.0,0.0,76,0.00,,---,0.13,VWS V14.01,2013-07-01 14:46:00,
2013-07-01 10:51:00,81.2,72.9,29.88,SW,225,0.0,0.0,76,0.00,,---,0.13,VWS V14.01,2013-07-01 14:51:00,
2013-07-01 10:56:00,81.3,73.0,29.88,SSW,209,0.0,0.0,76,0.00,,---,0.13,VWS V14.01,2013-07-01 14:56:00,
2013-07-01 11:00:00,81.2,72.9,29.88,SSW,212,0.0,0.0,76,0.00,,---,0.13,VWS V14.01,2013-07-01 15:00:00,
2013-07-01 11:01:00,81.2,72.9,29.88,SSW,196,0.0,0.0,76,0.00,,---,0.13,VWS V14.01,2013-07-01 15:01:00,
2013-07-01 11:06:00,81.2,72.9,29.89,SW,225,0.0,0.0,76,0.00,,---,0.13,VWS V14.01,2013-07-01 15:06:00,
2013-07-01 11:11:00,81.3,73.0,29.89,SW,214,0.0,0.0,76,0.00,,---,0.13,VWS V14.01,2013-07-01 15:11:00,
2013-07-01 11:16:00,81.5,73.2,29.89,SSW,209,0.0,0.0,76,0.00,,---,0.13,VWS V14.01,2013-07-01 15:16:00,
2013-07-01 11:22:00,81.6,73.3,29.89,SW,224,0.0,0.0,76,0.00,,---,0.13,VWS V14.01,2013-07-01 15:22:00,
2013-07-01 11:27:00,81.4,72.7,29.89,SW,230,0.0,0.0,75,0.00,,---,0.13,VWS V14.01,2013-07-01 15:27:00,
2013-07-01 11:30:00,81.2,72.5,29.90,SW,219,0.0,0.0,75,0.00,,---,0.13,VWS V14.01,2013-07-01 15:30:00,
2013-07-01 11:32:00,81.1,72.4,29.89,SSW,212,0.0,0.0,75,0.00,,---,0.13,VWS V14.01,2013-07-01 15:32:00,
2013-07-01 11:37:00,81.0,72.7,29.89,SSW,211,0.0,0.0,76,0.00,,---,0.13,VWS V14.01,2013-07-01 15:37:00,
2013-07-01 11:42:00,80.9,72.6,29.89,SSW,209,0.0,0.0,76,0.00,,---,0.13,VWS V14.01,2013-07-01 15:42:00,
2013-07-01 11:47:00,81.1,72.8,29.89,SSW,211,0.0,0.0,76,0.00,,---,0.13,VWS V14.01,2013-07-01 15:47:00,
2013-07-01 11:52:00,81.6,72.9,29.90,SSW,200,0.0,0.0,75,0.00,,---,0.13,VWS V14.01,2013-07-01 15:52:00,
2013-07-01 11:57:00,81.6,72.5,29.90,SW,219,0.0,0.0,74,0.00,,---,0.13,VWS V14.01,2013-07-01 15:57:00,
2013-07-01 12:00:00,81.5,72.4,29.90,SSW,209,0.0,0.0,74,0.00,,---,0.13,VWS V14.01,2013-07-01 16:00:00,
2013-07-01 12:02:00,81.5,72.4,29.90,SW,221,0.0,0.0,74,0.00,,---,0.13,VWS V14.01,2013-07-01 16:02:00,
2013-07-01 12:07:00,81.5,72.8,29.91,SW,216,0.0,0.0,75,0.00,,---,0.13,VWS V14.01,2013-07-01 16:07:00,
2013-07-01 12:12:00,81.1,72.0,29.91,SSW,202,0.0,0.0,74,0.00,,---,0.13,VWS V14.01,2013-07-01 16:12:00,
2013-07-01 12:17:00,81.0,72.3,29.91,SW,227,0.0,0.0,75,0.00,,---,0.13,VWS V14.01,2013-07-01 16:17:00,
2013-07-01 12:22:00,80.5,71.5,29.91,SW,225,0.0,0.0,74,0.00,,---,0.13,VWS V14.01,2013-07-01 16:22:00,
2013-07-01 12:27:00,79.8,70.4,29.91,NNW,327,0.0,0.0,73,0.00,,---,0.13,VWS V14.01,2013-07-01 16:27:00,
2013-07-01 12:30:00,78.7,68.9,29.91,NNW,346,0.0,0.0,72,0.00,,---,0.13,VWS V14.01,2013-07-01 16:30:00,
2013-07-01 12:32:00,78.2,68.8,29.91,NNW,346,0.0,0.0,73,0.00,,---,0.13,VWS V14.01,2013-07-01 16:32:00,
2013-07-01 12:37:00,78.6,70.4,29.91,SW,233,0.0,0.0,76,0.00,,---,0.13,VWS V14.01,2013-07-01 16:37:00,
2013-07-01 12:42:00,77.6,69.8,29.92,WSW,238,0.0,0.0,77,0.00,,---,0.13,VWS V14.01,2013-07-01 16:42:00,
2013-07-01 12:47:00,77.9,70.5,29.91,SW,217,0.0,0.0,78,0.01,,---,0.14,VWS V14.01,2013-07-01 16:47:00,
2013-07-01 12:52:00,79.1,71.7,29.92,SW,214,0.0,0.0,78,0.01,,---,0.14,VWS V14.01,2013-07-01 16:52:00,
2013-07-01 12:57:00,79.9,71.3,29.91,SSW,206,0.0,0.0,75,0.01,,---,0.14,VWS V14.01,2013-07-01 16:57:00,
2013-07-01 13:00:00,80.5,72.2,29.91,SSW,212,0.0,0.0,76,0.01,,---,0.14,VWS V14.01,2013-07-01 17:00:00,
2013-07-01 13:02:00,80.6,71.9,29.91,SSW,213,0.0,0.0,75,0.01,,---,0.14,VWS V14.01,2013-07-01 17:02:00,
2013-07-01 13:07:00,80.7,71.2,29.91,SSW,201,0.0,0.0,73,0.01,,---,0.14,VWS V14.01,2013-07-01 17:07:00,
2013-07-01 13:12:00,80.7,70.8,29.92,SW,223,0.0,0.0,72,0.01,,---,0.14,VWS V14.01,2013-07-01 17:12:00,
2013-07-01 13:17:00,80.7,70.4,29.92,SSW,209,0.0,0.0,71,0.01,,---,0.14,VWS V14.01,2013-07-01 17:17:00,
2013-07-01 13:22:00,80.8,70.9,29.92,SW,222,0.0,0.0,72,0.01,,---,0.14,VWS V14.01,2013-07-01 17:22:00,
2013-07-01 13:27:00,80.8,70.5,29.92,SW,216,0.0,0.0,71,0.01,,---,0.14,VWS V14.01,2013-07-01 17:27:00,
2013-07-01 13:30:00,80.7,70.4,29.92,SSW,211,0.0,0.0,71,0.01,,---,0.14,VWS V14.01,2013-07-01 17:30:00,
2013-07-01 13:32:00,80.7,70.8,29.92,SW,218,0.0,0.0,72,0.01,,---,0.14,VWS V14.01,2013-07-01 17:32:00,
2013-07-01 13:37:00,80.8,71.3,29.92,SW,229,0.0,0.0,73,0.01,,---,0.14,VWS V14.01,2013-07-01 17:37:00,
2013-07-01 13:42:00,80.2,71.2,29.93,SW,223,0.0,0.0,74,0.01,,---,0.14,VWS V14.01,2013-07-01 17:42:00,
2013-07-01 13:47:00,79.7,71.1,29.93,SW,223,0.0,0.0,75,0.01,,---,0.14,VWS V14.01,2013-07-01 17:47:00,
2013-07-01 13:52:00,79.2,70.2,29.93,SSW,211,0.0,0.0,74,0.01,,---,0.14,VWS V14.01,2013-07-01 17:52:00,
2013-07-01 13:57:00,79.0,70.0,29.93,SW,217,0.0,0.0,74,0.01,,---,0.14,VWS V14.01,2013-07-01 17:57:00,
2013-07-01 14:00:00,79.0,70.0,29.93,SW,232,0.0,0.0,74,0.01,,---,0.14,VWS V14.01,2013-07-01 18:00:00,
2013-07-01 14:02:00,79.1,70.5,29.93,SSW,203,0.0,0.0,75,0.00,,---,0.14,VWS V14.01,2013-07-01 18:02:00,
2013-07-01 14:07:00,78.9,69.1,29.92,SW,221,0.0,0.0,72,0.00,,---,0.14,VWS V14.01,2013-07-01 18:07:00,
2013-07-01 14:12:00,78.5,68.7,29.93,SW,228,0.0,0.0,72,0.00,,---,0.14,VWS V14.01,2013-07-01 18:12:00,
2013-07-01 14:17:00,78.2,68.8,29.92,SW,215,0.0,0.0,73,0.00,,---,0.14,VWS V14.01,2013-07-01 18:17:00,
2013-07-01 14:22:00,78.0,69.4,29.92,SSW,201,0.0,0.0,75,0.00,,---,0.14,VWS V14.01,2013-07-01 18:22:00,
2013-07-01 14:27:00,77.7,69.5,29.92,SW,228,0.0,0.0,76,0.00,,---,0.14,VWS V14.01,2013-07-01 18:27:00,
2013-07-01 14:30:00,77.7,69.5,29.92,SSW,210,0.0,0.0,76,0.00,,---,0.14,VWS V14.01,2013-07-01 18:30:00,
2013-07-01 14:32:00,77.7,69.2,29.92,SW,224,0.0,0.0,75,0.00,,---,0.14,VWS V14.01,2013-07-01 18:32:00,
2013-07-01 14:38:00,78.0,69.4,29.92,SSW,207,0.0,0.0,75,0.00,,---,0.14,VWS V14.01,2013-07-01 18:38:00,
2013-07-01 14:43:00,78.3,69.7,29.92,SW,215,0.0,0.0,75,0.00,,---,0.14,VWS V14.01,2013-07-01 18:43:00,
2013-07-01 14:48:00,78.5,69.5,29.91,WSW,238,0.0,0.0,74,0.00,,---,0.14,VWS V14.01,2013-07-01 18:48:00,
2013-07-01 14:53:00,79.2,70.2,29.92,SSW,212,0.0,0.0,74,0.00,,---,0.14,VWS V14.01,2013-07-01 18:53:00,
2013-07-01 14:58:00,79.0,69.6,29.91,SSW,212,0.0,0.0,73,0.00,,---,0.14,VWS V14.01,2013-07-01 18:58:00,
2013-07-01 15:00:00,78.9,69.5,29.91,SSW,193,0.0,0.0,73,0.00,,---,0.14,VWS V14.01,2013-07-01 19:00:00,
2013-07-01 15:03:00,79.0,69.6,29.91,SSW,203,0.0,0.0,73,0.00,,---,0.14,VWS V14.01,2013-07-01 19:03:00,
2013-07-01 15:08:00,79.0,69.6,29.91,SSW,197,0.0,0.0,73,0.00,,---,0.14,VWS V14.01,2013-07-01 19:08:00,
2013-07-01 15:13:00,79.2,70.2,29.91,South,171,0.0,0.0,74,0.00,,---,0.14,VWS V14.01,2013-07-01 19:13:00,
2013-07-01 15:18:00,79.7,71.1,29.91,South,188,0.0,0.0,75,0.00,,---,0.14,VWS V14.01,2013-07-01 19:18:00,
2013-07-01 15:23:00,79.9,71.7,29.91,SSW,194,0.0,0.0,76,0.00,,---,0.14,VWS V14.01,2013-07-01 19:23:00,
2013-07-01 15:28:00,80.3,72.1,29.91,SSW,202,0.0,0.0,76,0.00,,---,0.14,VWS V14.01,2013-07-01 19:28:00,
2013-07-01 15:30:00,80.3,72.1,29.92,SSW,211,0.0,0.0,76,0.00,,---,0.14,VWS V14.01,2013-07-01 19:30:00,
2013-07-01 15:33:00,80.5,72.2,29.92,SSW,200,0.0,0.0,76,0.00,,---,0.14,VWS V14.01,2013-07-01 19:33:00,
2013-07-01 15:38:00,80.2,72.3,29.92,SSW,193,0.0,0.0,77,0.00,,---,0.14,VWS V14.01,2013-07-01 19:38:00,
2013-07-01 15:43:00,79.9,72.1,29.92,South,188,0.0,0.0,77,0.00,,---,0.14,VWS V14.01,2013-07-01 19:43:00,
2013-07-01 15:48:00,79.4,71.9,29.92,SSW,200,0.0,0.0,78,0.00,,---,0.14,VWS V14.01,2013-07-01 19:48:00,
2013-07-01 15:53:00,79.3,71.8,29.91,SSW,211,0.0,0.0,78,0.00,,---,0.14,VWS V14.01,2013-07-01 19:53:00,
2013-07-01 15:58:00,79.2,71.8,29.92,SSW,194,0.0,0.0,78,0.00,,---,0.14,VWS V14.01,2013-07-01 19:58:00,
2013-07-01 16:00:00,79.0,71.6,29.91,SSW,207,0.0,0.0,78,0.00,,---,0.14,VWS V14.01,2013-07-01 20:00:00,
2013-07-01 16:03:00,78.6,71.2,29.92,SSW,199,0.0,0.0,78,0.00,,---,0.14,VWS V14.01,2013-07-01 20:03:00,
2013-07-01 16:08:00,78.4,71.3,29.92,South,190,0.0,0.0,79,0.00,,---,0.14,VWS V14.01,2013-07-01 20:08:00,
2013-07-01 16:13:00,78.2,71.2,29.92,SSW,205,0.0,0.0,79,0.00,,---,0.14,VWS V14.01,2013-07-01 20:13:00,
2013-07-01 16:18:00,78.1,70.7,29.92,SSW,196,0.0,0.0,78,0.00,,---,0.14,VWS V14.01,2013-07-01 20:18:00,
2013-07-01 16:23:00,78.5,70.7,29.93,SSW,194,0.0,0.0,77,0.00,,---,0.14,VWS V14.01,2013-07-01 20:23:00,
2013-07-01 16:28:00,78.7,70.9,29.92,SSW,195,0.0,0.0,77,0.00,,---,0.14,VWS V14.01,2013-07-01 20:28:00,
2013-07-01 16:30:00,78.7,70.9,29.92,SSW,198,0.0,0.0,77,0.00,,---,0.14,VWS V14.01,2013-07-01 20:30:00,
2013-07-01 16:33:00,78.9,71.1,29.92,SSW,213,0.0,0.0,77,0.00,,---,0.14,VWS V14.01,2013-07-01 20:33:00,
2013-07-01 16:38:00,79.0,70.8,29.92,SSW,207,0.0,0.0,76,0.00,,---,0.14,VWS V14.01,2013-07-01 20:38:00,
2013-07-01 16:43:00,78.9,70.7,29.92,SSW,209,0.0,0.0,76,0.00,,---,0.14,VWS V14.01,2013-07-01 20:43:00,
2013-07-01 16:48:00,78.9,70.7,29.92,SSW,213,0.0,0.0,76,0.00,,---,0.14,VWS V14.01,2013-07-01 20:48:00,
2013-07-01 16:54:00,78.9,70.3,29.92,SW,214,0.0,0.0,75,0.00,,---,0.14,VWS V14.01,2013-07-01 20:54:00,
2013-07-01 16:59:00,79.2,71.0,29.92,SSW,212,0.0,0.0,76,0.00,,---,0.14,VWS V14.01,2013-07-01 20:59:00,
2013-07-01 17:00:00,79.1,70.5,29.92,SSW,212,0.0,0.0,75,0.00,,---,0.14,VWS V14.01,2013-07-01 21:00:00,
2013-07-01 17:04:00,79.0,70.8,29.92,SSW,195,0.0,0.0,76,0.00,,---,0.14,VWS V14.01,2013-07-01 21:04:00,
2013-07-01 17:09:00,79.2,71.0,29.92,SSW,202,0.0,0.0,76,0.00,,---,0.14,VWS V14.01,2013-07-01 21:09:00,
2013-07-01 17:14:00,79.2,71.0,29.92,SSW,202,0.0,0.0,76,0.00,,---,0.14,VWS V14.01,2013-07-01 21:14:00,
2013-07-01 17:19:00,79.2,71.0,29.92,SSW,202,0.0,0.0,76,0.00,,---,0.14,VWS V14.01,2013-07-01 21:19:00,
2013-07-01 17:24:00,79.2,71.0,29.92,SSW,202,0.0,0.0,76,0.00,,---,0.14,VWS V14.01,2013-07-01 21:24:00,
2013-07-01 17:29:00,79.2,71.0,29.93,SSW,202,0.0,0.0,76,0.00,,---,0.14,VWS V14.01,2013-07-01 21:29:00,
2013-07-01 17:30:00,79.2,71.0,29.92,SSW,202,0.0,0.0,76,0.00,,---,0.14,VWS V14.01,2013-07-01 21:30:00,
2013-07-01 17:34:00,79.2,71.0,29.92,SSW,202,0.0,0.0,76,0.00,,---,0.14,VWS V14.01,2013-07-01 21:34:00,
2013-07-01 17:39:00,79.2,71.0,29.93,SSW,202,0.0,0.0,76,0.00,,---,0.14,VWS V14.01,2013-07-01 21:39:00,
2013-07-01 17:44:00,79.2,71.0,29.92,SSW,202,0.0,0.0,76,0.00,,---,0.14,VWS V14.01,2013-07-01 21:44:00,
2013-07-01 17:49:00,79.2,71.0,29.92,SSW,202,0.0,0.0,76,0.00,,---,0.14,VWS V14.01,2013-07-01 21:49:00,
2013-07-01 17:54:00,79.2,71.0,29.92,SSW,202,0.0,0.0,76,0.00,,---,0.14,VWS V14.01,2013-07-01 21:54:00,
2013-07-01 17:59:00,79.2,71.0,29.91,SSW,202,0.0,0.0,76,0.00,,---,0.14,VWS V14.01,2013-07-01 21:59:00,
2013-07-01 18:00:00,79.2,71.0,29.91,SSW,202,0.0,0.0,76,0.00,,---,0.14,VWS V14.01,2013-07-01 22:00:00,
2013-07-01 18:04:00,79.2,71.0,29.92,SSW,202,0.0,0.0,76,0.00,,---,0.14,VWS V14.01,2013-07-01 22:04:00,
2013-07-01 18:09:00,79.2,71.0,29.92,SSW,202,0.0,0.0,76,0.00,,---,0.14,VWS V14.01,2013-07-01 22:09:00,
2013-07-01 18:14:00,79.2,71.0,29.92,SSW,202,0.0,0.0,76,0.00,,---,0.14,VWS V14.01,2013-07-01 22:14:00,
2013-07-01 18:19:00,79.2,71.0,29.92,SSW,202,0.0,0.0,76,0.00,,---,0.14,VWS V14.01,2013-07-01 22:19:00,
2013-07-01 18:24:00,79.2,71.0,29.92,SSW,202,0.0,0.0,76,0.00,,---,0.14,VWS V14.01,2013-07-01 22:24:00,
2013-07-01 18:29:00,79.2,71.0,29.92,SSW,202,0.0,0.0,76,0.00,,---,0.14,VWS V14.01,2013-07-01 22:29:00,
2013-07-01 18:30:00,79.2,71.0,29.92,SSW,202,0.0,0.0,76,0.00,,---,0.14,VWS V14.01,2013-07-01 22:30:00,
2013-07-01 18:34:00,79.2,71.0,29.92,SSW,202,0.0,0.0,76,0.00,,---,0.14,VWS V14.01,2013-07-01 22:34:00,
2013-07-01 18:39:00,79.2,71.0,29.93,SSW,202,0.0,0.0,76,0.00,,---,0.14,VWS V14.01,2013-07-01 22:39:00,
2013-07-01 19:00:00,0.0,0.0,29.93,North,0,0.0,0.0,0,0.00,,---,0.14,VWS V14.01,2013-07-01 23:00:00,
2013-07-01 19:30:00,0.0,0.0,29.93,North,0,0.0,0.0,0,0.00,,---,0.14,VWS V14.01,2013-07-01 23:30:00,
2013-07-01 20:00:00,0.0,0.0,29.95,North,0,0.0,0.0,0,0.00,,---,0.14,VWS V14.01,2013-07-02 00:00:00,
2013-07-01 20:30:00,0.0,0.0,29.95,North,0,0.0,0.0,0,0.00,,---,0.14,VWS V14.01,2013-07-02 00:30:00,
2013-07-01 20:51:00,0.0,0.0,29.97,North,0,0.0,0.0,0,0.00,,---,0.14,VWS V14.01,2013-07-02 00:51:00,
2013-07-01 20:56:00,0.0,0.0,29.98,North,0,0.0,0.0,0,0.00,,---,0.14,VWS V14.01,2013-07-02 00:56:00,
2013-07-01 21:00:00,0.0,0.0,29.98,North,0,0.0,0.0,0,0.00,,---,0.14,VWS V14.01,2013-07-02 01:00:00,
2013-07-01 21:01:00,0.0,0.0,29.99,North,0,0.0,0.0,0,0.00,,---,0.14,VWS V14.01,2013-07-02 01:01:00,
2013-07-01 21:06:00,0.0,0.0,29.99,North,0,0.0,0.0,0,0.00,,---,0.14,VWS V14.01,2013-07-02 01:06:00,
2013-07-01 21:11:00,0.0,0.0,29.99,North,0,0.0,0.0,0,0.00,,---,0.14,VWS V14.01,2013-07-02 01:11:00,
2013-07-01 21:16:00,0.0,0.0,29.99,North,0,0.0,0.0,0,0.00,,---,0.14,VWS V14.01,2013-07-02 01:16:00,
2013-07-01 21:21:00,0.0,0.0,29.99,North,0,0.0,0.0,0,0.00,,---,0.14,VWS V14.01,2013-07-02 01:21:00,
2013-07-01 21:26:00,0.0,0.0,29.99,North,0,0.0,0.0,0,0.00,,---,0.14,VWS V14.01,2013-07-02 01:26:00,
2013-07-01 21:30:00,0.0,0.0,29.99,North,0,0.0,0.0,0,0.00,,---,0.14,VWS V14.01,2013-07-02 01:30:00,
2013-07-01 21:31:00,0.0,0.0,29.99,North,0,0.0,0.0,0,0.00,,---,0.14,VWS V14.01,2013-07-02 01:31:00,
2013-07-01 21:37:00,0.0,0.0,29.99,North,0,0.0,0.0,0,0.00,,---,0.14,VWS V14.01,2013-07-02 01:37:00,
2013-07-01 21:42:00,0.0,0.0,29.99,North,0,0.0,0.0,0,0.00,,---,0.14,VWS V14.01,2013-07-02 01:42:00,
2013-07-01 21:47:00,0.0,0.0,29.99,North,0,0.0,0.0,0,0.00,,---,0.14,VWS V14.01,2013-07-02 01:47:00,
2013-07-01 21:52:00,0.0,0.0,29.99,North,0,0.0,0.0,0,0.00,,---,0.14,VWS V14.01,2013-07-02 01:52:00,
2013-07-01 21:57:00,0.0,0.0,29.99,North,0,0.0,0.0,0,0.00,,---,0.14,VWS V14.01,2013-07-02 01:57:00,
2013-07-01 22:00:00,0.0,0.0,29.99,North,0,0.0,0.0,0,0.00,,---,0.14,VWS V14.01,2013-07-02 02:00:00,
2013-07-01 22:02:00,0.0,0.0,29.99,North,0,0.0,0.0,0,0.00,,---,0.14,VWS V14.01,2013-07-02 02:02:00,
2013-07-01 22:07:00,0.0,0.0,30.01,North,0,0.0,0.0,0,0.00,,---,0.14,VWS V14.01,2013-07-02 02:07:00,
2013-07-01 22:12:00,0.0,0.0,30.00,North,0,0.0,0.0,0,0.00,,---,0.14,VWS V14.01,2013-07-02 02:12:00,
2013-07-01 22:19:00,0.0,0.0,30.00,North,0,0.0,0.0,0,0.00,,---,0.14,VWS V14.01,2013-07-02 02:19:00,
2013-07-01 22:24:00,0.0,0.0,30.01,North,0,0.0,0.0,0,0.00,,---,0.14,VWS V14.01,2013-07-02 02:24:00,
2013-07-01 22:29:00,0.0,0.0,30.00,North,0,0.0,0.0,0,0.00,,---,0.14,VWS V14.01,2013-07-02 02:29:00,
2013-07-01 22:30:00,0.0,0.0,30.00,North,0,0.0,0.0,0,0.00,,---,0.14,VWS V14.01,2013-07-02 02:30:00,
2013-07-01 22:34:00,0.0,0.0,30.00,North,0,0.0,0.0,0,0.00,,---,0.14,VWS V14.01,2013-07-02 02:34:00,
2013-07-01 22:39:00,0.0,0.0,30.01,North,0,0.0,0.0,0,0.00,,---,0.14,VWS V14.01,2013-07-02 02:39:00,
2013-07-01 22:44:00,0.0,0.0,30.01,North,0,0.0,0.0,0,0.00,,---,0.14,VWS V14.01,2013-07-02 02:44:00,
2013-07-01 22:49:00,0.0,0.0,30.02,North,0,0.0,0.0,0,0.00,,---,0.14,VWS V14.01,2013-07-02 02:49:00,
2013-07-01 22:58:00,0.0,0.0,30.01,North,0,0.0,0.0,0,0.00,,---,0.14,VWS V14.01,2013-07-02 02:58:00,
2013-07-01 23:00:00,0.0,0.0,30.01,North,0,0.0,0.0,0,0.00,,---,0.14,VWS V14.01,2013-07-02 03:00:00,
2013-07-01 23:05:00,0.0,0.0,30.01,North,0,0.0,0.0,0,0.00,,---,0.14,VWS V14.01,2013-07-02 03:05:00,
2013-07-01 23:12:00,0.0,0.0,30.02,North,0,0.0,0.0,0,0.00,,---,0.14,VWS V14.01,2013-07-02 03:12:00,
2013-07-01 23:17:00,0.0,0.0,30.02,North,0,0.0,0.0,0,0.00,,---,0.14,VWS V14.01,2013-07-02 03:17:00,
2013-07-01 23:22:00,0.0,0.0,30.02,North,0,0.0,0.0,0,0.00,,---,0.14,VWS V14.01,2013-07-02 03:22:00,
2013-07-01 23:27:00,0.0,0.0,30.02,North,0,0.0,0.0,0,0.00,,---,0.14,VWS V14.01,2013-07-02 03:27:00,
2013-07-01 23:30:00,0.0,0.0,30.01,North,0,0.0,0.0,0,0.00,,---,0.14,VWS V14.01,2013-07-02 03:30:00,
2013-07-01 23:32:00,0.0,0.0,30.02,North,0,0.0,0.0,0,0.00,,---,0.14,VWS V14.01,2013-07-02 03:32:00,
2013-07-01 23:37:00,0.0,0.0,30.01,North,0,0.0,0.0,0,0.00,,---,0.14,VWS V14.01,2013-07-02 03:37:00,
2013-07-01 23:42:00,0.0,0.0,30.01,North,0,0.0,0.0,0,0.00,,---,0.14,VWS V14.01,2013-07-02 03:42:00,
2013-07-01 23:47:00,0.0,0.0,30.02,North,0,0.0,0.0,0,0.00,,---,0.14,VWS V14.01,2013-07-02 03:47:00,
2013-07-01 23:55:00,0.0,0.0,30.01,North,0,0.0,0.0,0,0.00,,---,0.14,VWS V14.01,2013-07-02 03:55:00,